User: anonymous   Login
Location: Quaker Farms
(41.4276°N, 73.1557°W)
Time: 02:49:58
(UTC+00:00)
Language:

deb Explorer IX - Orbit

View from above orbital plane
View from above orbital plane
View from above satellite
View from above satellite

Ground track
Ground track

The orbit data is extracted from the following two-line orbital elements,

1 00085U 61004C   21163.20516920  .00001910  00000-0  42118-3 0  9992
2 00085  38.7727 343.9740 0385712  18.2119 343.2023 14.21757816982296
Epoch (UTC): 12 June 2021 04:55:26
Eccentricity: 0.0385712
inclination: 38.7727°
perigee height: 542 km
apogee height: 1097 km
right ascension of ascending node: 343.9740°
argument of perigee: 18.2119°
revolutions per day: 14.21757816
mean anomaly at epoch: 343.2023°
orbit number at epoch: 98229

The dashed part of the orbit path shows where the satellite is in the earth's shadow,  

DLR